Aeroporto :
LOGIN :

Iscrizione | Disclaimer

   EN    FR    IT 

 










Sommario :    VFR   VFR Marginale   IFR   IFR Intensivo   IFR Molto Intensivo
Visibilità : 
Base nubi : 
>= 8 km
>= 3000ft
5 / 8 km
1000 / 3000 ft
1500m / 5 km
500 / 1000 ft
800 / 1500m
200 / 500 ft
< 800m
< 200 ft
Simboli :   Temporali  Nebbia  Neve Forte  Precipitazioni Forti  Vento > 20 kt
SIGMETs :   Varie  Temporali  Ghiacco  Turbolenza  Onda orograficha  Ceneri Vulcaniche






- Altitudine del aeroporto : 699 ft
- Codice IATA : PAD


EDLP - Paderborn Lippstadt

ULTIMO METAR :
  • 200620Z VRB01KT 5000 OVC008 03/02 Q1018

METARs OBSOLETI :
  • 200550Z VRB01KT 6000 OVC008 03/02 Q1018
  • 200520Z VRB01KT 6000 OVC008 03/02 Q1018
  • 200450Z VRB02KT 8000 OVC008 03/02 Q1018
  • 200420Z VRB02KT 9000 OVC009 03/02 Q1018

TAF TAF EDLP
Valido dal 20 a 06 ore il 21 a 06 ore UTC


200500Z 2006/2106 10004KT 8000 BKN007
TEMPO 2006/2011 2000 BR BKN004
BECMG 2010/2013 BKN015
BECMG 2101/2103 BKN008



MetMap, La meteo Aeronautica in un colpo d'occhio ! - Copyright ORBIFLY Dicembre 2007 - Disclaimer

ORBIFLY MET'MAP TEAM :

Programmazione e sviluppo : Alexandra Zaïnal
Concezione e sviluppo : Baudouin d'Aumeries
Co-Programmazione e sviluppo : Marc-Olivier Méhu
Supporto tecnico e logistico : Manuel Goepfert
Aiuto per la traduzione : Arnaldo La Scala

Contatto : metmap@orbifly.com




FONTI E CREDITI :

   NOAA